STARLINK-5146, 54073

Orbit data source: Space-Track

STARLINK-5146, 54073 is a payload satellite owned by SpaceX/Seattle (US) in LEO that was launched on Thu, 20 Oct 2022 UTC via an FALCON 9 launch vehicle from the Air Force Eastern Test Range (AFETR). Payload-class satellites include a variety of spacecraft equipped with specific instruments for various scientific and technological missions. These include communications satellites like Starlink; space stations such as the ISS; scientific satellites like the Hubble; Earth observation satellites from companies like Planet Labs, Umbra, and HawkEye 360; GPS; miniature CubeSats for education and research; and military/defense satellites.

Loading next visibility...
Identifier
54073, 2022-136Y
Orbit
LEO
Country
Flag of USUS
Related business
Manufacturer
SpaceX/Seattle
Mission
Operational Commercial Communications
Bus & Motor
STARLINK, Unknown motor
Mass
305 kg wet, ~290 kg dry
Launch date (UTC)
2022-10-20 (3 years ago)
Launch vehicle
FALCON 9
Launch site
Air Force Eastern Test Range (AFETR)
Object type
Payload
Rocket body
Debris
Shape & HBR
Box + 1 Pan, 10.1 m
Radar Cross Section
13.562 m², Large (>1 m²)

Expand to show TLE details & history
Last TLE update: 14 hours ago

TLE from 14 hours ago
0 STARLINK-5146
1 54073U 22136Y   25303.95586013  .00000564  00000-0  53529-4 0  9996
2 54073  53.2180 201.1809 0001404  97.7558 262.3593 15.08844179167338
Epoch: 2025-10-30T22:56Z
TLE epoch observation values (Epoch: 2025-10-30T22:56:26.315Z)
Latitude
-0.00006°
Longitude
177.56399°
Altitude
540.757 km
Speed
7.593 km/s
True Right ascension
13h 24m 43s
True Declination
0° 00' 00"
Sunlit
Object was in daylight at epoch
Visualization orbit readout
Latitude
Unknown
Longitude
Unknown
Altitude
Unknown
Speed
Unknown
Apparent Right ascension
Unknown
Apparent Declination
Unknown
Sunlit
N/A
Visualization observer readout
Local Sidereal Time
08:39:59
Azimuth
Unknown
Elevation
Unknown
Doppler factor
Unknown
Orbital elements
Apogee altitude
540.947 km
Perigee altitude
539.004 km
Semi-major axis
6,918.112 km
Eccentricity
0.00014
Inclination
53.218°
RAAN
201.1809°
Arg. of periapsis
97.7558°
True anomaly
262.34335°
Mean anomaly
262.3593°
Eccentric anomaly
262.35133°
Mean motion
3.77191 °/min
Orbital period
95.44 mins
BSTAR
0.000053529
Loading maneuver chart data...
Computing Atmospheric mass density...
Loading historical data...
Loading historical data...
Loading historical data...
Loading historical data...
Loading historical data...
Loading historical data...
Loading historical data...

Documentation

Showing up to 5 results
|